N6ZQK Weather Reports


Display with metric or nautical units.
time (UTC)temp
F
wind
direction
speed
MPH
gust
MPH
rain 1hr
in
rain 24hr
in
rain mn
in
humidity
%
barometer
mb
20260905083003 53 102 5.0 15.0 0.00 0.64 0.00 83 1013.2
20260905082403 53 100 6.0 16.0 0.00 0.64 0.00 83 1013.2
20260905081804 53 99 6.0 14.0 0.00 0.66 0.00 83 1013.2
20260905081203 53 106 4.0 12.0 0.00 0.66 0.00 84 1013.1
20260905080603 53 103 5.0 13.0 0.00 0.66 0.00 84 1013.1
20260905080003 53 104 6.0 13.0 0.00 0.66 0.00 84 1013.5
20260905075403 53 105 5.0 13.0 0.00 0.67 0.00 84 1013.5
20260905074803 53 99 5.0 13.0 0.00 0.67 0.00 84 1013.5
20260905074203 53 104 4.0 13.0 0.00 0.67 0.00 84 1013.4
20260905073603 53 109 4.0 12.0 0.00 0.67 0.00 85 1013.5
20260905073003 53 101 4.0 12.0 0.00 0.67 0.00 85 1013.5
20260905072403 53 94 4.0 14.0 0.00 0.68 0.00 86 1013.5
20260905071804 53 90 4.0 14.0 0.00 0.68 0.00 85 1013.5
20260905071203 53 91 3.0 9.0 0.00 0.69 0.00 85 1013.6
20260905070603 54 95 5.0 10.0 0.00 0.70 0.00 85 1013.5
20260905070004 54 97 3.0 10.0 0.00 0.72 0.00 85 1013.7
20260905065403 54 101 3.0 6.0 0.00 0.74 0.74 84 1013.5
20260905064803 54 102 2.0 6.0 0.00 0.75 0.74 84 1013.5
20260905064203 54 108 2.0 9.0 0.00 0.75 0.74 84 1013.5
20260905063603 54 117 2.0 7.0 0.00 0.76 0.74 83 1013.5
20260905063003 54 124 2.0 6.0 0.00 0.76 0.74 83 1013.5
20260905062403 54 130 2.0 6.0 0.00 0.77 0.74 83 1013.5
20260905061803 54 139 2.0 7.0 0.00 0.77 0.74 83 1013.6
20260905061203 53 150 2.0 7.0 0.00 0.77 0.74 82 1013.9
20260905060604 53 157 2.0 5.0 0.00 0.77 0.74 83 1013.9
20260905060003 54 158 1.0 4.0 0.00 0.77 0.74 81 1014.0
20260905055403 54 158 1.0 4.0 0.00 0.77 0.74 81 1014.0
20260905055017 54 158 1.0 4.0 0.00 0.77 0.74 81 1014.0
20260905054417 54 158 0.0 3.0 0.00 0.78 0.74 81 1014.0
20260905053603 54 198 1.0 4.0 0.00 0.78 0.74 81 1014.0
20260905053003 54 227 1.0 3.0 0.00 0.79 0.74 79 1014.2
20260905052403 54 233 0.0 3.0 0.00 0.79 0.74 79 1014.1
20260905051803 54 233 0.0 3.0 0.00 0.79 0.74 79 1014.2
20260905051417 54 233 0.0 2.0 0.00 0.79 0.74 79 1014.2
20260905050603 54 233 0.0 2.0 0.00 0.79 0.74 80 1014.2
20260905050003 54 233 0.0 3.0 0.00 0.79 0.74 79 1014.4
20260905045403 54 233 0.0 3.0 0.00 0.79 0.74 78 1014.4
20260905045017 54 233 0.0 3.0 0.00 0.79 0.74 79 1014.1
20260905044203 55 233 0.0 3.0 0.00 0.79 0.74 77 1014.0
20260905043818 55 233 0.0 3.0 0.00 0.79 0.74 77 1014.0
20260905043003 55 234 0.0 3.0 0.00 0.79 0.74 78 1014.0
20260905042403 55 234 0.0 2.0 0.00 0.79 0.74 77 1014.0
20260905041803 55 234 0.0 2.0 0.00 0.79 0.74 78 1013.9
20260905041203 55 234 0.0 2.0 0.00 0.79 0.74 78 1013.7
20260905040603 55 234 0.0 2.0 0.00 0.79 0.74 78 1013.7
20260905040003 55 234 0.0 2.0 0.00 0.79 0.74 77 1013.7
20260905035617 55 234 0.0 2.0 0.00 0.79 0.74 77 1013.7
20260905034803 56 234 0.0 2.0 0.00 0.79 0.74 76 1013.5
20260905034203 56 234 0.0 2.0 0.00 0.79 0.74 76 1013.5
20260905033603 56 234 0.0 2.0 0.00 0.79 0.74 77 1013.4
20260905033003 56 234 0.0 2.0 0.00 0.79 0.74 76 1013.3
20260905032403 56 234 0.0 2.0 0.00 0.79 0.74 76 1013.2
20260905031803 57 234 0.0 2.0 0.00 0.79 0.74 75 1013.0
20260905031203 57 234 1.0 3.0 0.00 0.79 0.74 75 1013.0
20260905030603 57 234 0.0 3.0 0.00 0.79 0.74 74 1012.9
20260905030003 57 234 0.0 3.0 0.00 0.79 0.74 73 1012.9
20260905025404 58 234 0.0 3.0 0.00 0.79 0.74 72 1012.9
20260905024803 58 234 0.0 2.0 0.00 0.79 0.74 71 1012.9
20260905024203 58 234 0.0 3.0 0.00 0.79 0.74 71 1012.8
20260905023817 59 233 0.0 3.0 0.00 0.79 0.74 72 1012.7
20260905023003 59 231 1.0 4.0 0.00 0.79 0.74 71 1012.6
20260905022403 60 230 1.0 4.0 0.00 0.79 0.74 71 1012.6
20260905021803 60 230 1.0 3.0 0.00 0.79 0.74 70 1012.6
20260905021203 60 230 0.0 3.0 0.00 0.79 0.74 70 1012.6
20260905020603 60 230 0.0 2.0 0.00 0.79 0.74 70 1012.4
20260905020217 61 230 0.0 2.0 0.00 0.79 0.74 69 1012.3
20260905015403 61 230 1.0 5.0 0.00 0.79 0.74 68 1012.3
20260905014803 62 230 1.0 5.0 0.00 0.79 0.74 67 1012.3
20260905014417 62 230 0.0 3.0 0.00 0.79 0.74 67 1012.3
20260905013603 62 212 1.0 6.0 0.00 0.79 0.74 64 1012.2
20260905013003 62 198 1.0 6.0 0.00 0.79 0.74 65 1012.2
20260905012403 62 205 2.0 5.0 0.00 0.79 0.74 57 1012.2
20260905012018 63 201 1.0 6.0 0.00 0.79 0.74 61 1011.9
20260905011203 63 155 1.0 4.0 0.00 0.79 0.74 59 1012.1
20260905010604 63 159 3.0 9.0 0.00 0.79 0.74 57 1012.1
20260905010003 62 172 2.0 9.0 0.00 0.79 0.74 58 1012.1
20260905005403 62 206 0.0 3.0 0.00 0.79 0.74 63 1011.9
20260905004803 62 206 1.0 4.0 0.00 0.79 0.74 56 1012.1
20260905004417 62 206 1.0 6.0 0.00 0.79 0.74 62 1012.0
20260905003603 62 205 1.0 5.0 0.00 0.79 0.74 67 1012.0
20260905003218 62 201 0.0 5.0 0.00 0.79 0.74 67 1012.0
20260905002403 62 192 0.0 3.0 0.00 0.79 0.74 67 1012.0
20260905001803 62 193 1.0 6.0 0.00 0.79 0.74 69 1012.0
20260905001203 63 210 2.0 6.0 0.00 0.79 0.74 65 1012.1
20260905000818 63 241 1.0 6.0 0.00 0.79 0.74 66 1012.2
20260905000003 63 227 1.0 6.0 0.00 0.79 0.74 64 1012.2
20260904235403 64 204 2.0 6.0 0.00 0.79 0.74 64 1012.1
20260904234803 64 195 1.0 5.0 0.00 0.79 0.74 63 1012.0
20260904234203 64 204 2.0 9.0 0.00 0.79 0.74 61 1012.0
20260904233603 64 235 2.0 8.0 0.00 0.79 0.74 64 1012.0
20260904233003 63 228 2.0 8.0 0.00 0.79 0.74 63 1012.2
20260904232403 63 211 2.0 7.0 0.00 0.79 0.74 60 1012.2
20260904231803 63 212 3.0 7.0 0.00 0.79 0.74 64 1012.3
20260904231203 63 247 4.0 12.0 0.00 0.79 0.74 65 1012.3
20260904230818 63 248 5.0 12.0 0.00 0.79 0.74 65 1012.3
20260904230217 63 230 4.0 12.0 0.00 0.79 0.74 64 1012.3
20260904225404 63 222 4.0 14.0 0.00 0.79 0.74 66 1012.2
20260904224803 63 234 2.0 7.0 0.00 0.79 0.74 68 1012.1
20260904224203 63 233 2.0 7.0 0.00 0.79 0.74 70 1012.1
20260904223818 63 211 2.0 9.0 0.00 0.79 0.74 69 1012.2
20260904223003 62 191 4.0 10.0 0.00 0.79 0.74 70 1012.1
20260904222617 62 182 3.0 12.0 0.00 0.79 0.74 70 1012.4
20260904221803 62 186 3.0 12.0 0.00 0.79 0.74 75 1012.4
20260904221418 62 209 2.0 10.0 0.00 0.79 0.74 75 1012.4
20260904220603 62 215 4.0 14.0 0.00 0.79 0.74 74 1012.4
20260904220003 62 233 4.0 14.0 0.00 0.79 0.74 73 1012.1
20260904215617 62 238 5.0 13.0 0.00 0.79 0.74 74 1012.1
20260904214803 62 211 3.0 13.0 0.00 0.79 0.74 76 1012.1
20260904214203 61 206 2.0 13.0 0.00 0.79 0.74 80 1012.3
20260904213603 61 220 3.0 10.0 0.00 0.79 0.74 78 1012.2
20260904213003 62 206 5.0 10.0 0.00 0.79 0.74 78 1012.0
20260904212403 61 200 5.0 12.0 0.00 0.79 0.74 79 1012.4
20260904212018 61 204 4.0 12.0 0.00 0.79 0.74 78 1012.3
20260904211203 61 178 4.0 10.0 0.00 0.79 0.74 78 1012.2
20260904210603 61 195 5.0 10.0 0.00 0.79 0.74 79 1012.3
20260904210003 61 207 3.0 10.0 0.00 0.79 0.74 83 1012.2
20260904205403 60 221 4.0 12.0 0.00 0.79 0.74 85 1012.2
20260904204803 60 206 4.0 12.0 0.00 0.79 0.74 83 1012.2
20260904204203 60 212 3.0 13.0 0.00 0.79 0.74 84 1012.2
20260904203603 59 197 2.0 7.0 0.00 0.79 0.74 84 1012.4
20260904203003 59 184 3.0 7.0 0.00 0.79 0.74 83 1012.5
20260904202403 59 177 4.0 8.0 0.00 0.79 0.74 82 1012.4
20260904201803 59 171 2.0 7.0 0.00 0.79 0.74 82 1012.5
20260904201203 58 152 1.0 6.0 0.00 0.79 0.74 83 1012.4
20260904200603 58 154 1.0 7.0 0.00 0.79 0.74 84 1012.4
20260904200218 58 144 2.0 10.0 0.00 0.79 0.74 84 1012.5
20260904195618 58 161 3.0 10.0 0.00 0.79 0.74 82 1012.4
20260904194803 58 161 4.0 9.0 0.00 0.79 0.74 84 1012.5
20260904194203 58 146 4.0 9.0 0.00 0.79 0.74 83 1012.6
20260904193817 58 149 4.0 10.0 0.00 0.79 0.74 82 1012.6
20260904193003 58 164 3.0 13.0 0.00 0.79 0.74 83 1012.7
20260904192403 57 155 3.0 13.0 0.00 0.79 0.74 86 1012.8
20260904191803 57 134 3.0 9.0 0.00 0.79 0.74 87 1012.9
20260904191203 56 117 3.0 9.0 0.00 0.79 0.74 89 1012.9
20260904190603 56 113 3.0 9.0 0.00 0.79 0.74 89 1012.9
20260904190004 56 134 2.0 6.0 0.00 0.79 0.74 90 1012.9
20260904185403 56 134 3.0 7.0 0.00 0.79 0.74 92 1012.9
20260904184803 55 133 4.0 9.0 0.00 0.79 0.74 90 1012.9
20260904184203 55 141 3.0 9.0 0.00 0.79 0.74 92 1012.9
20260904183603 55 172 1.0 6.0 0.00 0.79 0.74 93 1012.9
20260904183003 55 176 2.0 6.0 0.00 0.79 0.74 92 1012.9
20260904182403 55 176 1.0 5.0 0.00 0.79 0.74 93 1012.9
20260904181804 54 172 3.0 7.0 0.00 0.79 0.74 92 1013.1
20260904181203 54 174 4.0 9.0 0.00 0.79 0.74 92 1013.1
20260904180603 54 170 3.0 9.0 0.00 0.79 0.74 92 1013.0
20260904180003 54 157 2.0 9.0 0.00 0.79 0.74 93 1013.0
20260904175617 54 155 1.0 6.0 0.00 0.79 0.74 93 1013.0
20260904175017 54 155 1.0 6.0 0.00 0.79 0.74 93 1013.1
20260904174203 53 163 3.0 7.0 0.00 0.79 0.74 93 1013.1
20260904173603 53 167 4.0 12.0 0.00 0.79 0.74 93 1013.0
20260904173217 53 164 4.0 12.0 0.00 0.79 0.74 93 1013.0
20260904172403 54 165 2.0 12.0 0.00 0.79 0.74 95 1012.9
20260904171803 53 148 3.0 10.0 0.01 0.79 0.74 94 1012.8
20260904171418 53 149 3.0 10.0 0.02 0.79 0.74 94 1012.7
20260904170604 53 166 3.0 9.0 0.06 0.79 0.74 94 1012.7
20260904170003 53 166 2.0 7.0 0.06 0.79 0.74 95 1012.7
20260904165403 53 178 2.0 6.0 0.06 0.79 0.74 94 1012.6
20260904164803 53 171 3.0 9.0 0.06 0.79 0.74 94 1012.6
20260904164418 53 164 4.0 10.0 0.06 0.79 0.74 94 1012.6
20260904163603 53 165 4.0 12.0 0.06 0.79 0.74 94 1012.5
20260904163003 53 154 3.0 10.0 0.06 0.79 0.74 94 1012.4
20260904162403 53 158 4.0 10.0 0.06 0.79 0.74 94 1012.3
20260904161804 53 157 2.0 10.0 0.05 0.78 0.73 95 1012.1
20260904161203 53 159 2.0 7.0 0.03 0.76 0.71 95 1012.2
20260904160603 53 174 3.0 7.0 0.01 0.74 0.68 95 1012.2
20260904160004 53 171 2.0 7.0 0.02 0.74 0.68 95 1012.2
20260904155618 53 168 3.0 8.0 0.03 0.74 0.68 95 1012.3
20260904154803 53 165 4.0 9.0 0.03 0.74 0.68 95 1012.1
20260904154203 53 158 4.0 10.0 0.05 0.74 0.68 95 1012.0
20260904153603 53 156 4.0 10.0 0.06 0.74 0.68 94 1012.1
20260904153217 53 157 4.0 10.0 0.06 0.74 0.68 94 1012.0
20260904152618 53 172 4.0 7.0 0.06 0.74 0.68 94 1012.0
20260904151803 53 184 4.0 9.0 0.06 0.74 0.68 94 1012.0
20260904151204 53 189 2.0 7.0 0.05 0.72 0.67 95 1012.1
20260904150603 53 191 3.0 10.0 0.05 0.72 0.67 95 1012.0
20260904150004 53 192 3.0 10.0 0.03 0.71 0.66 95 1011.8
20260904145403 53 187 2.0 7.0 0.02 0.70 0.65 95 1011.5
20260904144803 53 186 1.0 5.0 0.03 0.70 0.65 95 1011.5
20260904144203 53 186 1.0 5.0 0.02 0.69 0.64 95 1011.4
20260904143603 53 186 0.0 3.0 0.01 0.68 0.63 95 1011.4
20260904143218 53 186 0.0 3.0 0.01 0.68 0.63 95 1011.3
20260904142403 53 186 1.0 4.0 0.02 0.68 0.63 95 1011.1
20260904141803 53 191 2.0 7.0 0.03 0.68 0.63 95 1011.1
20260904141203 53 188 2.0 6.0 0.03 0.68 0.63 95 1011.0
20260904140603 53 179 2.0 7.0 0.05 0.68 0.63 95 1010.8
20260904140004 53 178 2.0 7.0 0.05 0.68 0.63 95 1010.8
20260904135403 53 173 2.0 9.0 0.05 0.68 0.63 94 1010.7
20260904134803 54 171 3.0 9.0 0.07 0.67 0.61 94 1010.5
20260904134203 54 175 3.0 10.0 0.07 0.67 0.61 95 1010.5
20260904133604 54 170 2.0 10.0 0.07 0.67 0.61 95 1010.5
20260904133218 54 164 2.0 6.0 0.07 0.67 0.61 95 1010.5
20260904132403 54 165 2.0 7.0 0.07 0.66 0.60 95 1010.4
20260904131803 53 176 3.0 7.0 0.06 0.64 0.59 95 1010.5
20260904131203 53 170 3.0 10.0 0.06 0.64 0.59 94 1010.5
20260904130603 54 162 3.0 10.0 0.06 0.63 0.58 94 1010.4
20260904130003 54 169 3.0 10.0 0.06 0.63 0.58 94 1010.4
20260904125403 54 199 2.0 7.0 0.07 0.63 0.58 94 1010.2
20260904125017 54 203 2.0 7.0 0.05 0.61 0.56 95 1010.2
20260904124203 54 184 2.0 9.0 0.03 0.60 0.55 95 1010.3
20260904123603 54 179 4.0 12.0 0.05 0.60 0.55 94 1010.2
20260904123217 54 179 3.0 12.0 0.05 0.60 0.55 95 1010.1
20260904122403 54 192 2.0 9.0 0.05 0.59 0.53 94 1010.2
20260904121803 54 191 4.0 10.0 0.06 0.59 0.53 94 1010.1
20260904121203 54 197 4.0 10.0 0.07 0.59 0.53 94 1010.1
20260904120603 54 205 2.0 9.0 0.07 0.57 0.52 94 1010.1
20260904120004 54 213 2.0 6.0 0.08 0.57 0.52 94 1010.0
20260904115403 54 232 2.0 7.0 0.10 0.56 0.51 94 1009.9
20260904114804 54 221 3.0 14.0 0.14 0.56 0.51 94 1010.0
20260904114203 54 226 3.0 14.0 0.16 0.56 0.51 94 1010.0
20260904113818 54 222 3.0 10.0 0.17 0.55 0.50 94 1010.0
20260904113003 54 222 3.0 10.0 0.17 0.54 0.49 94 1009.7
20260904112403 54 210 3.0 12.0 0.20 0.54 0.49 94 1009.8
20260904111803 55 207 5.0 14.0 0.23 0.53 0.48 94 1009.7
20260904111204 55 215 4.0 13.0 0.25 0.52 0.46 94 1009.7
20260904110817 55 214 3.0 9.0 0.28 0.52 0.46 94 1009.7
20260904110003 55 216 4.0 13.0 0.29 0.49 0.44 94 1009.5
20260904105403 55 207 3.0 12.0 0.26 0.46 0.40 94 1009.5
20260904105018 55 206 3.0 12.0 0.23 0.43 0.38 94 1009.4
20260904104203 55 216 4.0 10.0 0.23 0.40 0.34 94 1009.4
20260904103817 55 212 4.0 14.0 0.21 0.38 0.32 94 1009.4
20260904103003 56 229 3.0 12.0 0.20 0.37 0.30 94 1009.2
20260904102403 56 226 5.0 17.0 0.18 0.34 0.28 94 1009.2
20260904101803 56 223 3.0 17.0 0.14 0.30 0.23 94 1009.1
20260904101417 56 206 2.0 7.0 0.13 0.28 0.21 94 1009.1
20260904100603 56 188 2.0 7.0 0.08 0.23 0.16 94 1009.1
20260904100003 56 182 4.0 13.0 0.06 0.21 0.14 94 1009.0
20260904095618 56 179 5.0 13.0 0.05 0.20 0.13 94 1009.0
20260904094803 56 182 3.0 12.0 0.03 0.18 0.12 94 1009.0
20260904094203 56 185 3.0 10.0 0.02 0.17 0.10 94 1009.0
20260904093603 56 180 4.0 13.0 0.02 0.17 0.10 94 1009.0
20260904093219 56 179 5.0 13.0 0.02 0.17 0.10 94 1009.0
20260904092618 56 176 5.0 13.0 0.01 0.16 0.09 94 1009.0
20260904091803 56 181 5.0 13.0 0.02 0.16 0.09 94 1009.0
20260904091417 56 184 5.0 13.0 0.01 0.15 0.08 94 1009.1
20260904090603 56 177 5.0 13.0 0.01 0.15 0.08 94 1009.1
20260904090003 56 181 5.0 12.0 0.01 0.15 0.08 94 1009.2
20260904085403 56 183 5.0 13.0 0.02 0.15 0.08 94 1009.3
20260904084803 56 175 5.0 13.0 0.02 0.15 0.08 94 1009.3
20260904084417 56 172 5.0 12.0 0.02 0.15 0.08 94 1009.4